1509145200.84,31393,10.44,72984.5,-6.25,-6.93,-6.89,0,*51
1509145202.08,31394,10.44,72986.0,-6.29,-6.85,-6.93,0,*56
1509145203.28,31395,10.38,72978.3,-6.25,-6.89,-6.89,0,*5C
1509145204.48,31396,10.44,72978.3,-6.25,-6.89,-6.89,0,*5F
1509145205.68,31397,10.44,72982.0,-6.25,-6.89,-6.89,0,*5E
1509145206.88,31398,10.44,72984.0,-6.25,-6.89,-6.89,0,*51
1509145208.15,31399,10.44,72986.8,-6.29,-6.93,-6.93,0,*5C
1509145209.38,31400,10.44,72990.3,-6.25,-6.89,-6.93,0,*5C
1509145210.63,31401,10.44,72986.3,-6.25,-6.93,-6.93,0,*56
1509145211.83,31402,10.44,72976.5,-6.25,-6.89,-6.89,0,*55
1509145213.08,31403,10.44,72974.0,-6.23,-6.93,-6.89,0,*59
1509145214.34,31404,10.44,72968.0,-6.25,-6.97,-6.93,0,*57
1509145215.59,31405,10.44,72970.5,-6.25,-6.93,-6.93,0,*52
1509145216.84,31406,10.44,72966.3,-6.25,-6.93,-6.93,0,*51
1509145218.1,31407,10.38,72962.8,-6.25,-6.93,-6.93,0,*50
1509145219.35,31408,10.38,72956.0,-6.25,-7.01,-6.93,0,*55
1509145220.57,31409,10.44,72964.0,-6.25,-6.89,-6.93,0,*55
1509145221.84,31410,10.44,72972.3,-6.29,-6.97,-6.97,0,*5A
1509145223.07,31411,10.44,72966.8,-6.25,-6.93,-6.89,0,*5C
1509145224.27,31412,10.44,72966.8,-6.25,-6.89,-6.89,0,*54
1509145225.51,31413,10.44,72966.0,-6.29,-6.93,-6.89,0,*52
1509145226.74,31414,10.44,72968.3,-6.25,-6.93,-6.89,0,*59
1509145228.01,31415,10.44,72964.5,-6.29,-6.93,-6.93,0,*5F
1509145229.26,31416,10.44,72962.3,-6.25,-6.93,-6.93,0,*50
1509145230.49,31417,10.44,72962.5,-6.25,-6.89,-6.93,0,*5A
1509145231.74,31418,10.44,72962.3,-6.25,-6.93,-6.93,0,*5E
1509145233.0,31419,10.44,72964.8,-6.25,-6.93,-6.93,0,*5F
1509145234.27,31420,10.44,72968.0,-6.29,-6.93,-6.93,0,*59
1509145235.51,31421,10.44,72964.8,-6.25,-7.01,-7.01,0,*54
1509145236.77,31422,10.38,72964.5,-6.25,-6.93,-6.93,0,*57
1509145237.99,31423,10.44,72960.8,-6.25,-6.89,-6.93,0,*5D
1509145239.26,31424,10.44,72964.0,-6.29,-6.97,-6.97,0,*5D
1509145240.53,31425,10.44,72962.8,-6.29,-6.97,-6.93,0,*58
1509145241.78,31426,10.44,72970.5,-6.25,-6.93,-6.93,0,*53
1509145243.01,31427,10.44,72968.0,-6.25,-6.93,-6.89,0,*59
1509145244.27,31428,10.44,72968.3,-6.25,-6.93,-6.93,0,*5D
1509145245.52,31429,10.44,72972.8,-6.25,-6.93,-6.93,0,*5C
1509145246.79,31430,10.44,72974.8,-6.29,-6.93,-6.93,0,*58
1509145248.02,31431,10.44,72976.0,-6.25,-6.93,-6.89,0,*5E
1509145249.29,31432,10.44,72978.0,-6.29,-6.93,-6.93,0,*5A
1509145250.56,31433,10.44,72972.8,-6.29,-6.97,-6.93,0,*5F
1509145251.82,31434,10.44,72970.0,-6.29,-6.97,-7.05,0,*56
1509145253.07,31435,10.44,72974.0,-6.25,-6.93,-6.93,0,*51
1509145254.34,31436,10.44,72972.8,-6.29,-6.97,-6.97,0,*5E
1509145255.61,31437,10.44,72976.8,-6.29,-7.05,-6.93,0,*51
1509145256.87,31438,10.44,72982.0,-6.29,-6.97,-7.05,0,*5A
1509145258.14,31439,10.44,72978.8,-6.29,-6.93,-6.93,0,*51
1509145259.39,31440,10.44,72978.8,-6.25,-6.93,-6.93,0,*53
1509145260.66,31441,10.44,72980.3,-6.29,-6.97,-6.97,0,*5E
1509145261.93,31442,10.44,72980.8,-6.29,-6.97,-6.97,0,*5D
1509145263.2,31443,10.44,72982.3,-6.29,-6.93,-6.93,0,*5C
1509145264.45,31444,10.44,72982.8,-6.25,-6.97,-6.93,0,*53
1509145265.72,31445,10.44,72976.0,-6.29,-6.93,-6.97,0,*5E
1509145266.97,31446,10.44,72976.8,-6.25,-6.93,-6.93,0,*55
1509145268.2,31447,10.44,72974.5,-6.25,-6.89,-6.93,0,*5F
1509145269.47,31448,10.44,72978.5,-6.29,-6.93,-6.97,0,*53
1509145270.72,31449,10.44,72978.0,-6.25,-6.97,-6.93,0,*5E
1509145271.99,31450,10.44,72980.0,-6.29,-6.93,-6.97,0,*5A
1509145273.26,31451,10.44,72978.3,-6.29,-6.93,-6.97,0,*5B
1509145274.53,31452,10.44,72978.8,-6.29,-6.93,-6.97,0,*58
1509145275.8,31453,10.44,72982.8,-6.29,-6.97,-6.93,0,*59
1509145277.05,31454,10.44,72980.5,-6.25,-6.93,-6.93,0,*56
1509145278.32,31455,10.44,72982.8,-6.29,-6.93,-6.97,0,*5F
1509145279.55,31456,10.44,72978.5,-6.25,-6.93,-6.89,0,*5F
1509145280.82,31457,10.44,72978.0,-6.29,-6.93,-6.97,0,*5D
1509145282.02,31458,10.44,72978.0,-6.25,-6.89,-6.89,0,*5A
1509145283.24,31459,10.44,72982.8,-6.25,-6.89,-6.93,0,*50
1509145284.51,31460,10.44,72984.0,-6.29,-6.97,-6.97,0,*5D
1509145285.78,31461,10.44,72978.8,-6.29,-6.93,-6.93,0,*5C
1509145287.03,31462,10.44,72974.5,-6.25,-6.93,-6.93,0,*53
1509145288.26,31463,10.44,72976.0,-6.25,-6.93,-6.89,0,*59
1509145289.49,31464,10.44,72978.8,-6.25,-6.89,-6.93,0,*5E
1509145290.71,31465,10.44,72976.0,-6.25,-6.93,-6.89,0,*5F
1509145291.92,31466,10.44,72974.5,-6.25,-6.89,-6.89,0,*57
1509145293.18,31467,10.44,72974.0,-6.29,-6.93,-6.97,0,*5E
1509145294.41,31468,10.38,72974.3,-6.25,-6.93,-6.89,0,*52
1509145295.66,31469,10.44,72974.3,-6.25,-6.93,-6.93,0,*58
1509145296.94,31470,10.44,72972.5,-6.29,-6.93,-6.93,0,*5C
1509145298.2,31471,10.44,72972.0,-6.29,-6.97,-6.97,0,*5D
1509145299.46,31472,10.44,72974.5,-6.25,-6.93,-6.93,0,*52
1509145300.71,31473,10.44,72976.3,-6.25,-6.93,-6.93,0,*53
1509145301.91,31474,10.44,72976.5,-6.25,-6.89,-6.89,0,*54
1509145303.18,31475,10.44,72978.3,-6.29,-6.93,-6.93,0,*59
1509145304.45,31476,10.38,72974.5,-6.29,-6.97,-6.93,0,*5E
1509145305.67,31477,10.44,72972.3,-6.29,-6.89,-6.89,0,*5B
1509145306.89,31478,10.44,72974.5,-6.25,-6.89,-6.97,0,*57
1509145308.12,31479,10.44,72972.5,-6.25,-6.93,-6.89,0,*52
1509145309.35,31480,10.44,72970.5,-6.25,-6.93,-6.89,0,*54
1509145310.6,31481,10.44,72972.3,-6.25,-6.93,-6.93,0,*5E
1509145311.84,31482,10.44,72970.3,-6.29,-6.85,-6.97,0,*52
1509145313.11,31483,10.44,72968.0,-6.29,-6.93,-6.93,0,*50
1509145314.36,31484,10.44,72972.3,-6.25,-7.01,-6.93,0,*51
1509145315.58,31485,10.44,72970.0,-6.25,-7.01,-6.89,0,*5B
1509145316.83,31486,10.44,72968.8,-6.25,-7.01,-6.93,0,*53
1509145318.06,31487,10.44,72968.5,-6.25,-6.93,-6.89,0,*53
1509145319.29,31488,10.44,72970.5,-6.25,-6.89,-6.93,0,*5C
1509145320.56,31489,10.44,72970.8,-6.29,-6.97,-6.97,0,*5A
1509145321.82,31490,10.44,72972.3,-6.29,-6.97,-6.93,0,*56
1509145323.05,31491,10.44,72974.8,-6.25,-6.89,-6.93,0,*54
1509145324.28,31492,10.44,72972.3,-6.25,-6.89,-6.93,0,*57
1509145325.5,31493,10.44,72972.8,-6.25,-6.89,-7.01,0,*5C
1509145326.77,31494,10.44,72974.5,-6.29,-6.97,-6.97,0,*56
1509145328.04,31495,10.38,72974.5,-6.29,-6.97,-6.97,0,*57
1509145329.3,31496,10.44,72978.0,-6.29,-7.05,-6.97,0,*5E
1509145330.57,31497,10.38,72970.0,-6.29,-7.05,-6.93,0,*5B
1509145331.83,31498,10.44,72976.0,-6.29,-6.97,-6.97,0,*5A
1509145333.09,31499,10.44,72978.5,-6.25,-6.93,-6.93,0,*57
1509145334.36,31500,10.44,72978.0,-6.29,-6.97,-6.97,0,*5A
1509145335.63,31501,10.44,72978.3,-6.29,-6.97,-6.97,0,*5B
1509145336.9,31502,10.38,72976.5,-6.29,-6.93,-6.97,0,*5C
1509145338.16,31503,10.44,72978.3,-6.29,-6.97,-6.97,0,*59
1509145339.41,31504,10.44,72976.3,-6.25,-7.01,-6.93,0,*58
1509145340.68,31505,10.44,72982.3,-6.29,-7.05,-6.97,0,*55
1509145341.95,31506,10.44,72980.5,-6.29,-6.97,-6.93,0,*58
1509145343.22,31507,10.38,72982.0,-6.29,-6.97,-6.97,0,*5D
1509145344.48,31508,10.38,72982.3,-6.29,-6.97,-6.93,0,*56
1509145345.74,31509,10.38,72982.8,-6.25,-6.93,-6.97,0,*5B
1509145346.96,31510,10.44,72984.5,-6.25,-6.89,-6.93,0,*5C
1509145348.23,31511,10.44,72984.8,-6.29,-6.93,-6.93,0,*5A
1509145349.46,31512,10.44,72988.0,-6.25,-6.93,-6.89,0,*5E
1509145350.73,31513,10.44,72990.8,-6.29,-6.97,-6.97,0,*58
1509145352.0,31514,10.44,72990.8,-6.29,-6.97,-6.97,0,*5F
1509145353.23,31515,10.44,72994.5,-6.25,-6.97,-6.89,0,*5D
1509145354.49,31516,10.44,72994.3,-6.29,-6.93,-6.97,0,*59
1509145355.72,31517,10.44,72994.5,-6.25,-6.89,-6.93,0,*5B
1509145356.99,31518,10.38,72990.0,-6.29,-6.97,-6.93,0,*57
1509145358.26,31519,10.38,72996.3,-6.29,-6.97,-6.93,0,*56
1509145359.53,31520,10.38,72990.3,-6.29,-6.97,-6.93,0,*5C
1509145360.76,31521,10.44,72984.0,-6.25,-6.93,-6.89,0,*5E
1509145362.0,31522,10.38,72984.0,-6.29,-7.05,-7.11,0,*5F
1509145363.25,31523,10.44,72992.0,-6.25,-7.01,-7.01,0,*57
1509145364.49,31524,10.44,72988.3,-6.29,-7.11,-7.05,0,*59
1509145365.72,31525,10.44,72990.0,-6.29,-7.11,-7.11,0,*5D
1509145366.94,31526,10.38,72990.3,-6.29,-7.11,-7.11,0,*5E
1509145368.17,31527,10.44,72990.5,-6.29,-7.15,-7.11,0,*5B
1509145369.39,31528,10.44,72990.3,-6.29,-7.15,-7.11,0,*54
1509145370.62,31529,10.44,72986.3,-6.29,-7.11,-7.11,0,*51
1509145371.84,31530,10.44,72984.3,-6.29,-7.11,-7.11,0,*59
1509145373.05,31531,10.44,72980.0,-6.31,-7.11,-7.11,0,*51
1509145374.25,31532,10.44,72978.8,-6.31,-7.11,-7.11,0,*52
1509145375.5,31533,10.38,72974.8,-6.33,-7.19,-7.27,0,*5C
1509145376.69,31534,10.38,72972.5,-6.31,-7.15,-7.15,0,*54
1509145377.9,31535,10.38,72972.0,-6.31,-7.11,-7.15,0,*51
1509145379.12,31536,10.38,72974.5,-6.33,-7.15,-7.19,0,*58
1509145380.34,31537,10.38,72980.0,-6.33,-7.15,-7.15,0,*55
1509145381.54,31538,10.38,72976.8,-6.31,-7.11,-7.11,0,*58
1509145382.78,31539,10.44,72976.8,-6.31,-7.05,-7.05,0,*59
1509145384.0,31540,10.38,72970.0,-6.33,-7.15,-7.15,0,*55
1509145385.22,31541,10.38,72962.8,-6.31,-7.05,-7.11,0,*53
1509145386.47,31542,10.38,72956.5,-6.33,-7.15,-7.05,0,*56
1509145387.69,31543,10.44,72954.0,-6.33,-7.15,-7.15,0,*56
1509145388.91,31544,10.44,72954.8,-6.33,-7.15,-7.15,0,*51
1509145390.14,31545,10.38,72958.0,-6.33,-7.11,-7.11,0,*50
1509145391.37,31546,10.44,72962.0,-6.33,-7.15,-7.11,0,*57
1509145392.59,31547,10.38,72964.3,-6.33,-7.15,-7.15,0,*52
1509145393.81,31548,10.38,72970.3,-6.31,-7.11,-7.05,0,*5A
1509145395.01,31549,10.44,72974.3,-6.31,-7.11,-7.11,0,*5E
1509145396.24,31550,10.38,72972.0,-6.33,-7.11,-7.15,0,*50
1509145397.46,31551,10.38,72976.3,-6.33,-7.11,-7.15,0,*51
1509145398.69,31552,10.38,72976.8,-6.33,-7.11,-7.15,0,*52
1509145399.91,31553,10.38,72976.5,-6.33,-7.15,-7.11,0,*53
1509145401.14,31554,10.44,72982.3,-6.33,-7.15,-7.11,0,*54
1509145402.37,31555,10.44,72984.8,-6.33,-7.11,-7.11,0,*51
1509145403.6,31556,10.38,72980.0,-6.33,-7.11,-7.11,0,*52
1509145404.83,31557,10.38,72982.0,-6.33,-7.15,-7.11,0,*57
1509145406.04,31558,10.38,72986.0,-6.31,-7.15,-7.01,0,*5B
1509145407.29,31559,10.38,72988.3,-6.33,-7.01,-7.11,0,*5C
1509145408.54,31560,10.44,72992.3,-6.33,-7.11,-7.01,0,*56
1509145409.77,31561,10.44,72992.0,-6.33,-7.11,-7.11,0,*56
1509145411.0,31562,10.38,72992.0,-6.35,-6.97,-7.11,0,*5C
1509145412.23,31563,10.38,72990.8,-6.35,-7.01,-7.11,0,*53
1509145413.45,31564,10.44,72996.0,-6.33,-7.11,-7.15,0,*57
1509145414.72,31565,10.38,72996.5,-6.33,-7.01,-7.01,0,*52
1509145415.99,31566,10.38,72998.5,-6.33,-7.01,-7.01,0,*51
1509145417.24,31567,10.38,72996.3,-6.33,-7.11,-7.01,0,*51
1509145418.51,31568,10.38,72998.3,-6.33,-7.01,-7.01,0,*5F
1509145419.77,31569,10.38,73000.8,-6.33,-7.01,-7.05,0,*5A
1509145421.02,31570,10.38,73002.3,-6.33,-7.01,-7.11,0,*57
1509145422.27,31571,10.44,73004.8,-6.31,-6.97,-6.97,0,*55
1509145423.51,31572,10.38,73000.0,-6.33,-7.11,-7.01,0,*55
1509145424.78,31573,10.38,72996.3,-6.33,-7.01,-6.97,0,*5B
1509145426.03,31574,10.44,73002.5,-6.33,-7.01,-7.11,0,*53
1509145427.3,31575,10.44,73000.3,-6.33,-7.01,-7.01,0,*53
1509145428.57,31576,10.38,73002.8,-6.33,-7.01,-7.01,0,*50
1509145429.82,31577,10.38,73000.8,-6.31,-6.97,-6.93,0,*57
1509145431.06,31578,10.44,73006.0,-6.31,-7.01,-7.01,0,*5C
1509145432.3,31579,10.44,73008.3,-6.31,-6.97,-6.97,0,*5D
1509145433.55,31580,10.38,73006.8,-6.31,-6.97,-6.97,0,*5B
1509145434.82,31581,10.44,73008.5,-6.33,-7.01,-7.01,0,*58
1509145436.06,31582,10.38,72998.0,-6.31,-6.97,-6.97,0,*59
1509145437.33,31583,10.38,72996.0,-6.33,-7.01,-6.97,0,*54
1509145438.6,31584,10.38,72994.8,-6.33,-7.01,-7.01,0,*5D
1509145439.85,31585,10.38,72988.5,-6.31,-6.93,-6.93,0,*5E
1509145441.09,31586,10.44,72982.8,-6.31,-7.05,-6.97,0,*57
1509145442.36,31587,10.44,72980.3,-6.33,-7.01,-6.97,0,*50
1509145443.63,31588,10.44,72980.5,-6.33,-7.01,-7.01,0,*51
1509145444.89,31589,10.38,72982.5,-6.33,-7.01,-7.01,0,*50
1509145446.14,31590,10.38,72986.5,-6.31,-6.97,-6.93,0,*5E
1509145447.41,31591,10.38,72980.8,-6.33,-6.97,-7.01,0,*57
1509145448.68,31592,10.38,72986.3,-6.33,-7.01,-7.01,0,*5A
1509145449.93,31593,10.44,72992.0,-6.31,-6.97,-6.97,0,*59
1509145451.19,31594,10.38,72986.3,-6.33,-7.01,-7.01,0,*5C
1509145452.43,31595,10.38,73002.0,-6.31,-7.01,-7.05,0,*5B
1509145453.68,31596,10.38,72992.8,-6.33,-7.01,-7.11,0,*5F
1509145454.93,31597,10.38,72986.3,-6.33,-7.11,-6.97,0,*50
1509145456.17,31598,10.38,72986.5,-6.31,-7.05,-7.05,0,*52
1509145457.39,31599,10.38,72986.8,-6.33,-7.11,-7.11,0,*51
1509145458.64,31600,10.44,72990.5,-6.33,-7.01,-7.11,0,*53
1509145459.87,31601,10.38,72978.3,-6.33,-7.11,-7.11,0,*53
1509145461.12,31602,10.38,72978.0,-6.33,-7.11,-7.01,0,*51
1509145462.37,31603,10.38,72978.0,-6.33,-7.01,-7.11,0,*50
1509145463.62,31604,10.38,72992.0,-6.33,-7.01,-7.11,0,*57
1509145464.84,31605,10.44,72990.3,-6.31,-7.11,-7.05,0,*50
1509145466.06,31606,10.44,72982.5,-6.31,-7.05,-7.11,0,*53
1509145467.29,31607,10.38,72980.5,-6.33,-7.11,-7.11,0,*55
1509145468.54,31608,10.44,72992.5,-6.33,-7.11,-7.01,0,*5B
1509145469.78,31609,10.38,72998.3,-6.31,-7.05,-6.97,0,*53
1509145471.05,31610,10.38,72992.8,-6.33,-7.01,-7.01,0,*53
1509145472.3,31611,10.38,72994.5,-6.33,-7.11,-7.01,0,*53
1509145473.55,31612,10.44,72998.0,-6.33,-7.11,-7.01,0,*50
1509145474.81,31613,10.38,72992.0,-6.33,-7.01,-7.01,0,*50
1509145476.06,31614,10.44,72992.3,-6.31,-6.97,-6.97,0,*55
1509145477.33,31615,10.38,72988.5,-6.33,-7.01,-7.01,0,*56
1509145478.57,31616,10.38,72988.5,-6.31,-6.97,-6.97,0,*57
1509145479.84,31617,10.38,72980.8,-6.33,-7.01,-7.01,0,*54
1509145481.11,31618,10.38,72974.3,-6.33,-7.01,-7.01,0,*5B
1509145482.38,31619,10.38,72966.5,-6.33,-7.01,-7.01,0,*5A
1509145483.62,31620,10.38,72960.0,-6.31,-7.01,-6.97,0,*5C
1509145484.87,31621,10.38,72956.3,-6.31,-6.97,-6.97,0,*53
1509145486.12,31622,10.38,72952.8,-6.33,-6.97,-7.11,0,*5D
1509145487.39,31623,10.44,72954.3,-6.33,-7.01,-6.97,0,*5D
1509145488.64,31624,10.38,72954.0,-6.33,-7.11,-7.01,0,*55
1509145489.89,31625,10.38,72952.0,-6.33,-7.11,-7.01,0,*54
1509145491.16,31626,10.38,72948.0,-6.33,-7.01,-6.97,0,*58
1509145492.38,31627,10.38,72942.0,-6.33,-7.11,-7.11,0,*57
1509145493.63,31628,10.38,72946.8,-6.31,-6.97,-6.97,0,*5A
1509145494.87,31629,10.38,72952.0,-6.31,-6.97,-7.05,0,*51
1509145496.11,31630,10.38,72954.5,-6.31,-6.97,-6.97,0,*53
1509145497.38,31631,10.38,72960.3,-6.33,-7.01,-6.97,0,*5E
1509145498.65,31632,10.38,72968.5,-6.33,-6.97,-7.01,0,*5D
1509145499.9,31633,10.38,72968.8,-6.31,-6.97,-6.97,0,*50
1509145501.17,31634,10.38,72972.0,-6.33,-7.01,-7.01,0,*55
1509145502.44,31635,10.38,72972.5,-6.33,-7.01,-7.01,0,*54
1509145503.68,31636,10.38,72970.8,-6.31,-6.93,-6.97,0,*51
1509145504.95,31637,10.38,72974.5,-6.33,-7.01,-7.01,0,*56
1509145506.19,31638,10.38,72974.8,-6.31,-7.05,-6.97,0,*51
1509145507.43,31639,10.38,72976.3,-6.31,-7.05,-6.97,0,*50
1509145508.66,31640,10.44,72986.3,-6.33,-7.11,-7.11,0,*56
1509145509.93,31641,10.38,72980.3,-6.33,-7.01,-7.01,0,*57
1509145511.18,31642,10.38,72982.3,-6.33,-7.11,-7.01,0,*55
1509145512.45,31643,10.38,72980.8,-6.33,-7.01,-7.01,0,*55
1509145513.7,31644,10.38,72980.8,-6.33,-7.11,-7.01,0,*53
1509145514.95,31645,10.38,72974.8,-6.33,-7.11,-6.97,0,*5C
1509145516.18,31646,10.38,72974.0,-6.33,-7.11,-7.11,0,*50
1509145517.41,31647,10.38,72974.8,-6.33,-7.11,-7.11,0,*51
1509145518.66,31648,10.38,72974.0,-6.33,-7.01,-7.11,0,*5F
1509145519.91,31649,10.38,72970.8,-6.33,-7.11,-7.01,0,*5E
1509145521.13,31650,10.38,72972.5,-6.33,-7.11,-7.15,0,*53
1509145522.35,31651,10.38,72968.8,-6.33,-7.15,-7.15,0,*56
1509145523.62,31652,10.38,72970.8,-6.33,-7.01,-7.01,0,*55
1509145524.85,31653,10.38,72974.5,-6.33,-7.15,-7.11,0,*50
1509145526.05,31654,10.38,72968.5,-6.35,-7.11,-7.15,0,*51
1509145527.25,31655,10.38,72970.8,-6.35,-7.15,-7.11,0,*50
1509145528.46,31656,10.38,72974.0,-6.35,-7.19,-7.19,0,*57
1509145529.7,31657,10.38,72966.3,-6.35,-7.27,-7.27,0,*56
1509145530.95,31658,10.38,72964.5,-6.35,-7.31,-7.27,0,*5E
1509145532.19,31659,10.38,72966.5,-6.35,-7.31,-7.31,0,*58
1509145533.44,31660,10.38,72970.0,-6.35,-7.31,-7.31,0,*52
1509145534.68,31661,10.38,72968.5,-6.37,-7.23,-7.31,0,*52
1509145535.92,31662,10.38,72972.3,-6.37,-7.31,-7.23,0,*51
1509145537.17,31663,10.38,72966.8,-6.37,-7.31,-7.23,0,*50
1509145538.39,31664,10.38,72968.8,-6.37,-7.23,-7.23,0,*54
1509145539.66,31665,10.38,72976.5,-6.37,-7.35,-7.35,0,*55
1509145540.93,31666,10.38,72972.5,-6.37,-7.35,-7.35,0,*56
1509145542.17,31667,10.38,72972.8,-6.39,-7.39,-7.27,0,*56
1509145543.41,31668,10.38,72972.3,-6.37,-7.23,-7.31,0,*5B
1509145544.63,31669,10.38,72972.3,-6.37,-7.23,-7.23,0,*59
1509145545.86,31670,10.38,72970.0,-6.37,-7.23,-7.23,0,*51
1509145547.1,31671,10.38,72974.3,-6.37,-7.31,-7.23,0,*53
1509145548.35,31672,10.38,72976.5,-6.39,-7.27,-7.27,0,*5D
1509145549.59,31673,10.38,72972.8,-6.39,-7.27,-7.35,0,*5F
1509145550.83,31674,10.38,72970.0,-6.37,-7.23,-7.31,0,*56
1509145552.08,31675,10.38,72960.8,-6.39,-7.35,-7.35,0,*5A
1509145553.32,31676,10.38,72952.8,-6.39,-7.39,-7.39,0,*59
1509145554.57,31677,10.38,72952.3,-6.39,-7.27,-7.27,0,*58
1509145555.81,31678,10.38,72954.0,-6.39,-7.27,-7.27,0,*57
1509145557.02,31679,10.38,72956.3,-6.39,-7.19,-7.23,0,*5F
1509145558.22,31680,10.38,72950.5,-6.39,-7.23,-7.23,0,*50
1509145559.45,31681,10.38,72960.8,-6.41,-7.23,-7.23,0,*5E
1509145560.67,31682,10.38,72966.5,-6.41,-7.23,-7.19,0,*54
1509145561.87,31683,10.38,72968.8,-6.39,-7.19,-7.23,0,*5A
1509145563.1,31684,10.38,72970.0,-6.41,-7.19,-7.19,0,*5B
1509145564.3,31685,10.38,72974.0,-6.39,-7.23,-7.19,0,*5C
1509145565.5,31686,10.38,72976.3,-6.39,-7.11,-7.19,0,*5E
1509145566.73,31687,10.38,72978.8,-6.41,-7.19,-7.19,0,*58
1509145567.93,31688,10.38,72974.8,-6.39,-7.19,-7.19,0,*58
1509145569.15,31689,10.38,72972.5,-6.37,-7.19,-7.15,0,*5B
1509145570.36,31690,10.38,72986.5,-6.35,-7.15,-7.11,0,*59
1509145571.56,31691,10.38,72982.5,-6.39,-7.19,-7.19,0,*50
1509145572.76,31692,10.38,72980.5,-6.39,-7.19,-7.23,0,*5A
1509145574.01,31693,10.38,72976.5,-6.37,-7.05,-7.15,0,*5D
1509145575.21,31694,10.38,72978.8,-6.39,-7.11,-7.19,0,*5D
1509145576.43,31695,10.38,72974.5,-6.37,-7.19,-7.15,0,*56
1509145577.64,31696,10.38,72970.8,-6.39,-7.19,-7.19,0,*57
1509145578.86,31697,10.38,72972.8,-6.37,-7.15,-7.15,0,*58
1509145580.06,31698,10.38,72976.8,-6.39,-7.19,-7.19,0,*59
1509145581.28,31699,10.38,72990.5,-6.37,-7.15,-7.19,0,*5A
1509145582.52,31700,10.38,72986.8,-6.37,-7.05,-7.15,0,*56
1509145583.73,31701,10.38,72984.5,-6.39,-7.19,-7.23,0,*51
1509145584.95,31702,10.38,72978.8,-6.37,-7.15,-7.15,0,*55
1509145586.15,31703,10.38,72978.0,-6.35,-7.19,-7.15,0,*5A
1509145587.35,31704,10.38,72974.5,-6.39,-7.23,-7.19,0,*54
1509145588.55,31705,10.38,72974.3,-6.39,-7.19,-7.19,0,*5C
1509145589.76,31706,10.38,72968.5,-6.39,-7.19,-7.11,0,*57
1509145590.96,31707,10.38,72968.0,-6.39,-7.11,-7.11,0,*5E
1509145592.17,31708,10.38,72970.8,-6.39,-7.11,-7.11,0,*51
1509145593.38,31709,10.38,72970.5,-6.39,-7.11,-7.11,0,*50
1509145594.58,31710,10.38,72968.3,-6.39,-7.19,-7.11,0,*50
1509145595.78,31711,10.38,72962.8,-6.39,-7.19,-7.19,0,*59
1509145597.0,31712,10.38,72974.0,-6.37,-7.15,-7.19,0,*58
1509145598.25,31713,10.38,72972.3,-6.37,-7.05,-7.19,0,*58
1509145599.49,31714,10.38,72964.0,-6.37,-7.01,-7.15,0,*57
1509145600.75,31715,10.38,72956.3,-6.37,-7.05,-7.05,0,*53
1509145601.96,31716,10.38,72954.0,-6.39,-7.11,-7.11,0,*5E
1509145603.16,31717,10.38,72948.5,-6.39,-7.19,-7.19,0,*5F
1509145604.4,31718,10.38,72956.5,-6.37,-7.19,-7.05,0,*53
1509145605.64,31719,10.38,72966.5,-6.37,-7.15,-7.05,0,*5E
1509145606.88,31720,10.38,72962.5,-6.37,-7.05,-7.15,0,*54
1509145608.14,31721,10.38,72970.0,-6.37,-7.05,-7.05,0,*54
1509145609.34,31722,10.38,73000.5,-6.39,-7.11,-7.11,0,*59
1509145610.6,31723,10.38,72996.8,-6.37,-7.05,-7.05,0,*56
1509145611.86,31724,10.38,72998.0,-6.37,-7.05,-7.05,0,*51
1509145613.06,31725,10.38,72990.3,-6.39,-7.19,-7.19,0,*5E
1509145614.29,31726,10.38,72958.3,-6.37,-7.15,-7.19,0,*5F
1509145615.49,31727,10.38,72948.5,-6.35,-7.11,-7.11,0,*50
1509145616.72,31728,10.38,72952.3,-6.41,-7.19,-7.19,0,*5C
1509145617.92,31729,10.38,72954.3,-6.39,-7.23,-7.23,0,*52
1509145619.12,31730,10.38,72958.5,-6.39,-7.23,-7.23,0,*5A
1509145620.32,31731,10.38,72952.5,-6.39,-7.23,-7.23,0,*5B
1509145621.52,31732,10.38,72954.5,-6.39,-7.23,-7.19,0,*51
1509145622.73,31733,10.38,72966.8,-6.39,-7.19,-7.19,0,*59
1509145623.93,31734,10.38,72974.3,-6.39,-7.23,-7.23,0,*5E
1509145625.13,31735,10.38,72974.3,-6.39,-7.23,-7.23,0,*5F
1509145626.33,31736,10.38,72978.5,-6.39,-7.23,-7.23,0,*5C
1509145627.53,31737,10.38,72968.3,-6.39,-7.23,-7.23,0,*5D
1509145628.74,31738,10.38,72974.0,-6.39,-7.19,-7.23,0,*5B
1509145629.96,31739,10.38,72974.8,-6.41,-7.19,-7.11,0,*54
1509145631.16,31740,10.38,72974.5,-6.39,-7.23,-7.19,0,*54
1509145632.39,31741,10.38,72976.0,-6.35,-7.01,-7.11,0,*51
1509145633.59,31742,10.38,72978.0,-6.39,-7.11,-7.19,0,*57
1509145634.84,31743,10.38,72982.0,-6.37,-7.05,-7.15,0,*51
1509145636.04,31744,10.38,72976.8,-6.39,-7.19,-7.19,0,*59
1509145637.24,31745,10.38,72976.3,-6.39,-7.11,-7.19,0,*50
1509145638.45,31746,10.38,72972.0,-6.39,-7.11,-7.11,0,*5B
1509145639.65,31747,10.38,72972.8,-6.39,-7.19,-7.11,0,*52
1509145640.86,31748,10.38,72968.8,-6.39,-7.11,-7.11,0,*55
1509145642.07,31749,10.38,72968.5,-6.39,-7.11,-7.11,0,*54
1509145643.33,31750,10.38,72970.3,-6.37,-7.05,-7.05,0,*52
1509145644.53,31751,10.38,72974.5,-6.39,-7.11,-7.11,0,*5D
1509145645.74,31752,10.38,72966.8,-6.39,-7.11,-7.11,0,*5E
1509145646.97,31753,10.38,72964.5,-6.41,-7.11,-7.11,0,*50
1509145648.21,31754,10.38,72966.0,-6.39,-7.05,-7.05,0,*58
1509145649.41,31755,10.38,72964.8,-6.39,-7.11,-7.11,0,*59
1509145650.63,31756,10.38,72964.8,-6.39,-7.11,-7.05,0,*5F
1509145651.84,31757,10.38,72962.3,-6.39,-7.11,-7.11,0,*5B
1509145653.06,31758,10.38,72958.5,-6.39,-7.11,-7.05,0,*51
1509145654.26,31759,10.38,72962.5,-6.39,-7.11,-7.19,0,*5D
1509145655.5,31760,10.38,72960.3,-6.39,-7.05,-7.05,0,*5F
1509145656.73,31761,10.38,72948.5,-6.39,-7.05,-7.11,0,*5B
1509145657.94,31762,10.38,72952.5,-6.39,-7.11,-7.05,0,*58
1509145659.2,31763,10.38,72952.3,-6.37,-7.05,-7.05,0,*52
1509145660.47,31764,10.38,72944.3,-6.41,-7.05,-7.05,0,*54
1509145661.67,31765,10.38,72952.0,-6.39,-7.11,-7.19,0,*52
1509145662.9,31766,10.38,72960.3,-6.39,-7.05,-7.11,0,*5C
1509145664.1,31767,10.38,72954.3,-6.39,-7.11,-7.19,0,*50
1509145665.32,31768,10.38,72950.3,-6.39,-7.11,-7.05,0,*52
1509145666.52,31769,10.38,72948.3,-6.39,-7.11,-7.11,0,*56
1509145667.73,31770,10.38,72942.8,-6.39,-7.11,-7.11,0,*5E
1509145668.94,31771,10.38,72948.8,-6.39,-7.11,-7.11,0,*5F
1509145670.16,31772,10.38,72952.8,-6.39,-7.11,-7.05,0,*59
1509145671.39,31773,10.38,72954.8,-6.37,-7.15,-7.05,0,*52
1509145672.65,31774,10.38,72952.3,-6.37,-7.01,-7.05,0,*50
1509145673.92,31775,10.38,72952.0,-6.37,-7.05,-7.01,0,*51
1509145675.18,31776,10.38,72952.3,-6.37,-7.05,-7.05,0,*56
1509145676.44,31777,10.38,72952.5,-6.37,-7.05,-7.01,0,*53
1509145677.65,31778,10.38,72952.3,-6.39,-7.11,-7.11,0,*56
1509145678.85,31779,10.38,72952.8,-6.39,-7.23,-7.19,0,*5E
1509145680.05,31780,10.38,72958.3,-6.39,-7.11,-7.19,0,*59
1509145681.26,31781,10.38,72962.0,-6.39,-7.19,-7.23,0,*59
1509145682.46,31782,10.38,72966.5,-6.39,-7.23,-7.23,0,*53
1509145683.68,31783,10.38,72958.3,-6.39,-7.27,-7.23,0,*56
1509145684.88,31784,10.38,72954.3,-6.39,-7.23,-7.23,0,*55
1509145686.08,31785,10.38,72968.0,-6.39,-7.19,-7.19,0,*54
1509145687.31,31786,10.38,72968.8,-6.37,-7.15,-7.15,0,*59
1509145688.56,31787,10.38,72972.5,-6.37,-7.05,-7.05,0,*58
1509145689.8,31788,10.38,72972.5,-6.37,-7.15,-7.05,0,*56
1509145691.01,31789,10.38,72974.8,-6.39,-7.19,-7.11,0,*50
1509145692.23,31790,10.38,72980.5,-6.39,-7.19,-7.05,0,*5D
1509145693.43,31791,10.38,72984.8,-6.39,-7.11,-7.11,0,*51
1509145694.64,31792,10.38,72984.8,-6.39,-7.11,-7.11,0,*52
1509145695.84,31793,10.38,72990.8,-6.39,-7.11,-7.19,0,*5B
1509145697.04,31794,10.38,72986.5,-6.39,-7.11,-7.19,0,*5C
1509145698.27,31795,10.38,72988.0,-6.39,-7.05,-7.11,0,*50
1509145699.51,31796,10.38,72994.8,-6.41,-7.11,-7.05,0,*5C
1509145700.72,31797,10.38,72990.5,-6.39,-7.11,-7.11,0,*57
1509145701.93,31798,10.38,72992.8,-6.39,-7.11,-7.11,0,*58
1509145703.14,31799,10.38,72992.5,-6.39,-7.11,-7.05,0,*5C
1509145704.35,31800,10.38,72992.5,-6.39,-7.19,-7.11,0,*5E
1509145705.55,31801,10.38,72986.3,-6.39,-7.19,-7.19,0,*57
1509145706.76,31802,10.38,72988.5,-6.39,-7.11,-7.19,0,*5C
1509145707.96,31803,10.38,72994.3,-6.39,-7.11,-7.11,0,*55
1509145709.21,31804,10.38,72990.3,-6.41,-7.05,-7.11,0,*58
1509145710.42,31805,10.38,72994.5,-6.39,-7.11,-7.11,0,*53
1509145711.62,31806,10.38,72996.3,-6.39,-7.11,-7.11,0,*50